Year,Month,Day,Hour,Minute,Value (Times are PST for windspeed in km/hr)
2014,11,09,00,00,1.20
2014,11,09,00,01,1.50
2014,11,09,00,02,0.80
2014,11,09,00,03,1.00
2014,11,09,00,04,2.40
2014,11,09,00,05,4.40
2014,11,09,00,06,5.10
2014,11,09,00,07,8.50
2014,11,09,00,08,11.50
2014,11,09,00,09,5.10
2014,11,09,00,10,5.10
2014,11,09,00,11,4.70
2014,11,09,00,12,2.50
2014,11,09,00,13,1.00
2014,11,09,00,14,1.20
2014,11,09,00,15,1.70
2014,11,09,00,16,0.70
2014,11,09,00,17,2.70
2014,11,09,00,18,4.90
2014,11,09,00,19,5.50
2014,11,09,00,20,3.60
2014,11,09,00,21,1.70
2014,11,09,00,22,3.10
2014,11,09,00,23,3.10
2014,11,09,00,24,3.00
2014,11,09,00,25,1.90
2014,11,09,00,26,1.70
2014,11,09,00,27,4.00
2014,11,09,00,28,3.20
2014,11,09,00,29,2.10
2014,11,09,00,30,0.90
2014,11,09,00,31,5.70
2014,11,09,00,32,6.70
2014,11,09,00,33,4.10
2014,11,09,00,34,4.00
2014,11,09,00,35,3.50
2014,11,09,00,36,3.90
2014,11,09,00,37,4.50
2014,11,09,00,38,1.70
2014,11,09,00,39,2.10
2014,11,09,00,40,1.90
2014,11,09,00,41,1.50
2014,11,09,00,42,4.10
2014,11,09,00,43,3.80
2014,11,09,00,44,2.10
2014,11,09,00,45,3.60
2014,11,09,00,46,2.60
2014,11,09,00,47,1.40
2014,11,09,00,48,1.90
2014,11,09,00,49,1.30
2014,11,09,00,50,1.10
2014,11,09,00,51,1.80
2014,11,09,00,52,5.90
2014,11,09,00,53,6.40
2014,11,09,00,54,2.20
2014,11,09,00,55,2.60
2014,11,09,00,56,4.70
2014,11,09,00,57,3.30
2014,11,09,00,58,4.00
2014,11,09,00,59,2.40
2014,11,09,01,00,1.30
2014,11,09,01,01,0.70
2014,11,09,01,02,0.80
2014,11,09,01,03,2.20
2014,11,09,01,04,1.90
2014,11,09,01,05,1.30
2014,11,09,01,06,0.40
2014,11,09,01,07,0.10
2014,11,09,01,08,0.00
2014,11,09,01,09,0.60
2014,11,09,01,10,1.60
2014,11,09,01,11,1.60
2014,11,09,01,12,1.30
2014,11,09,01,13,2.10
2014,11,09,01,14,3.70
2014,11,09,01,15,3.10
2014,11,09,01,16,1.60
2014,11,09,01,17,1.30
2014,11,09,01,18,1.90
2014,11,09,01,19,1.60
2014,11,09,01,20,1.90
2014,11,09,01,21,6.50
2014,11,09,01,22,5.60
2014,11,09,01,23,2.10
2014,11,09,01,24,1.70
2014,11,09,01,25,1.80
2014,11,09,01,26,1.70
2014,11,09,01,27,2.50
2014,11,09,01,28,3.80
2014,11,09,01,29,4.90
2014,11,09,01,30,7.40
2014,11,09,01,31,6.10
2014,11,09,01,32,7.50
2014,11,09,01,33,4.20
2014,11,09,01,34,3.40
2014,11,09,01,35,2.40
2014,11,09,01,36,1.50
2014,11,09,01,37,1.10
2014,11,09,01,38,1.60
2014,11,09,01,39,4.40
2014,11,09,01,40,5.10
2014,11,09,01,41,6.90
2014,11,09,01,42,6.00
2014,11,09,01,43,6.60
2014,11,09,01,44,5.80
2014,11,09,01,45,6.30
2014,11,09,01,46,5.20
2014,11,09,01,47,3.90
2014,11,09,01,48,7.90
2014,11,09,01,49,8.20
2014,11,09,01,50,12.90
2014,11,09,01,51,12.30
2014,11,09,01,52,13.50
2014,11,09,01,53,15.20
2014,11,09,01,54,10.40
2014,11,09,01,55,7.00
2014,11,09,01,56,2.10
2014,11,09,01,57,5.20
2014,11,09,01,58,4.30
2014,11,09,01,59,2.60
2014,11,09,02,00,1.10
2014,11,09,02,01,2.50
2014,11,09,02,02,2.60
2014,11,09,02,03,1.70
2014,11,09,02,04,0.80
2014,11,09,02,05,1.00
2014,11,09,02,06,0.30
2014,11,09,02,07,2.30
2014,11,09,02,08,4.00
2014,11,09,02,09,4.00
2014,11,09,02,10,5.30
2014,11,09,02,11,4.80
2014,11,09,02,12,3.30
2014,11,09,02,13,4.30
2014,11,09,02,14,3.50
2014,11,09,02,15,4.00
2014,11,09,02,16,4.70
2014,11,09,02,17,5.40
2014,11,09,02,18,5.50
2014,11,09,02,19,5.10
2014,11,09,02,20,4.70
2014,11,09,02,21,3.90
2014,11,09,02,22,3.50
2014,11,09,02,23,3.10
2014,11,09,02,24,3.00
2014,11,09,02,25,4.80
2014,11,09,02,26,4.50
2014,11,09,02,27,4.40
2014,11,09,02,28,6.30
2014,11,09,02,29,8.20
2014,11,09,02,30,7.60
2014,11,09,02,31,5.40
2014,11,09,02,32,5.70
2014,11,09,02,33,4.40
2014,11,09,02,34,5.30
2014,11,09,02,35,5.80
2014,11,09,02,36,4.50
2014,11,09,02,37,5.30
2014,11,09,02,38,5.40
2014,11,09,02,39,4.60
2014,11,09,02,40,6.10
2014,11,09,02,41,7.40
2014,11,09,02,42,7.50
2014,11,09,02,43,5.80
2014,11,09,02,44,7.50
2014,11,09,02,45,8.50
2014,11,09,02,46,7.50
2014,11,09,02,47,6.60
2014,11,09,02,48,7.90
2014,11,09,02,49,12.10
2014,11,09,02,50,9.60
2014,11,09,02,51,11.30
2014,11,09,02,52,7.40
2014,11,09,02,53,6.00
2014,11,09,02,54,6.40
2014,11,09,02,55,7.70
2014,11,09,02,56,8.00
2014,11,09,02,57,4.80
2014,11,09,02,58,4.20
2014,11,09,02,59,5.80
2014,11,09,03,00,7.00
2014,11,09,03,01,6.40
2014,11,09,03,02,5.90
2014,11,09,03,03,4.60
2014,11,09,03,04,5.60
2014,11,09,03,05,5.40
2014,11,09,03,06,5.50
2014,11,09,03,07,5.50
2014,11,09,03,08,6.80
2014,11,09,03,09,5.20
2014,11,09,03,10,3.70
2014,11,09,03,11,3.40
2014,11,09,03,12,3.80
2014,11,09,03,13,4.20
2014,11,09,03,14,3.20
2014,11,09,03,15,3.30
2014,11,09,03,16,4.50
2014,11,09,03,17,4.90
2014,11,09,03,18,3.00
2014,11,09,03,19,2.60
2014,11,09,03,20,2.00
2014,11,09,03,21,2.20
2014,11,09,03,22,3.00
2014,11,09,03,23,2.90
2014,11,09,03,24,3.00
2014,11,09,03,25,3.60
2014,11,09,03,26,3.60
2014,11,09,03,27,5.70
2014,11,09,03,28,8.90
2014,11,09,03,29,4.10
2014,11,09,03,30,3.50
2014,11,09,03,31,2.70
2014,11,09,03,32,3.70
2014,11,09,03,33,5.10
2014,11,09,03,34,5.40
2014,11,09,03,35,3.90
2014,11,09,03,36,4.60
2014,11,09,03,37,3.40
2014,11,09,03,38,3.40
2014,11,09,03,39,4.10
2014,11,09,03,40,4.20
2014,11,09,03,41,6.20
2014,11,09,03,42,6.30
2014,11,09,03,43,6.40
2014,11,09,03,44,4.20
2014,11,09,03,45,3.90
2014,11,09,03,46,4.40
2014,11,09,03,47,3.10
2014,11,09,03,48,4.60
2014,11,09,03,49,5.20
2014,11,09,03,50,4.90
2014,11,09,03,51,4.50
2014,11,09,03,52,1.90
2014,11,09,03,53,3.70
2014,11,09,03,54,4.60
2014,11,09,03,55,4.30
2014,11,09,03,56,6.90
2014,11,09,03,57,4.50
2014,11,09,03,58,3.30
2014,11,09,03,59,3.40
2014,11,09,04,00,4.90
2014,11,09,04,01,4.60
2014,11,09,04,02,7.60
2014,11,09,04,03,4.10
2014,11,09,04,04,3.90
2014,11,09,04,05,2.40
2014,11,09,04,06,2.10
2014,11,09,04,07,3.00
2014,11,09,04,08,3.10
2014,11,09,04,09,3.00
2014,11,09,04,10,2.80
2014,11,09,04,11,2.80
2014,11,09,04,12,2.20
2014,11,09,04,13,1.80
2014,11,09,04,14,2.80
2014,11,09,04,15,2.90
2014,11,09,04,16,1.60
2014,11,09,04,17,1.70
2014,11,09,04,18,1.60
2014,11,09,04,19,1.80
2014,11,09,04,20,2.90
2014,11,09,04,21,4.30
2014,11,09,04,22,4.80
2014,11,09,04,23,1.80
2014,11,09,04,24,0.80
2014,11,09,04,25,0.40
2014,11,09,04,26,0.30
2014,11,09,04,27,0.50
2014,11,09,04,28,0.80
2014,11,09,04,29,0.70
2014,11,09,04,30,0.90
2014,11,09,04,31,1.90
2014,11,09,04,32,1.40
2014,11,09,04,33,2.00
2014,11,09,04,34,2.00
2014,11,09,04,35,1.90
2014,11,09,04,36,0.80
2014,11,09,04,37,0.80
2014,11,09,04,38,0.10
2014,11,09,04,39,0.00
2014,11,09,04,40,0.00
2014,11,09,04,41,0.40
2014,11,09,04,42,0.30
2014,11,09,04,43,0.40
2014,11,09,04,44,0.00
2014,11,09,04,45,0.60
2014,11,09,04,46,2.30
2014,11,09,04,47,0.80
2014,11,09,04,48,0.50
2014,11,09,04,49,0.50
2014,11,09,04,50,2.40
2014,11,09,04,51,1.10
2014,11,09,04,52,0.30
2014,11,09,04,53,0.70
2014,11,09,04,54,0.10
2014,11,09,04,55,0.40
2014,11,09,04,56,2.60
2014,11,09,04,57,4.00
2014,11,09,04,58,3.00
2014,11,09,04,59,2.20
2014,11,09,05,00,3.30
2014,11,09,05,01,0.50
2014,11,09,05,02,0.40
2014,11,09,05,03,0.40
2014,11,09,05,04,0.30
2014,11,09,05,05,2.10
2014,11,09,05,06,2.80
2014,11,09,05,07,2.40
2014,11,09,05,08,1.30
2014,11,09,05,09,1.40
2014,11,09,05,10,3.20
2014,11,09,05,11,4.10
2014,11,09,05,12,3.60
2014,11,09,05,13,4.60
2014,11,09,05,14,3.90
2014,11,09,05,15,2.30
2014,11,09,05,16,6.10
2014,11,09,05,17,6.70
2014,11,09,05,18,3.70
2014,11,09,05,19,3.30
2014,11,09,05,20,1.70
2014,11,09,05,21,3.70
2014,11,09,05,22,3.90
2014,11,09,05,23,3.70
2014,11,09,05,24,1.90
2014,11,09,05,25,6.90
2014,11,09,05,26,6.70
2014,11,09,05,27,7.50
2014,11,09,05,28,12.90
2014,11,09,05,29,5.40
2014,11,09,05,30,10.00
2014,11,09,05,31,4.90
2014,11,09,05,32,5.80
2014,11,09,05,33,3.50
2014,11,09,05,34,3.00
2014,11,09,05,35,10.10
2014,11,09,05,36,10.10
2014,11,09,05,37,6.90
2014,11,09,05,38,3.70
2014,11,09,05,39,3.90
2014,11,09,05,40,7.80
2014,11,09,05,41,10.10
2014,11,09,05,42,10.40
2014,11,09,05,43,15.60
2014,11,09,05,44,10.20
2014,11,09,05,45,6.40
2014,11,09,05,46,7.30
2014,11,09,05,47,8.00
2014,11,09,05,48,5.90
2014,11,09,05,49,6.60
2014,11,09,05,50,10.50
2014,11,09,05,51,6.10
2014,11,09,05,52,3.70
2014,11,09,05,53,12.90
2014,11,09,05,54,12.90
2014,11,09,05,55,10.80
2014,11,09,05,56,28.00
2014,11,09,05,57,15.10
2014,11,09,05,58,9.40
2014,11,09,05,59,6.10
2014,11,09,06,00,3.00
2014,11,09,06,01,4.80
2014,11,09,06,02,6.50
2014,11,09,06,03,8.90
2014,11,09,06,04,4.50
2014,11,09,06,05,7.00
2014,11,09,06,06,6.10
2014,11,09,06,07,13.40
2014,11,09,06,08,8.20
2014,11,09,06,09,11.20
2014,11,09,06,10,11.80
2014,11,09,06,11,14.80
2014,11,09,06,12,8.00
2014,11,09,06,13,3.30
2014,11,09,06,14,14.70
2014,11,09,06,15,10.20
2014,11,09,06,16,16.20
2014,11,09,06,17,13.40
2014,11,09,06,18,21.90
2014,11,09,06,19,7.80
2014,11,09,06,20,20.50
2014,11,09,06,21,16.60
2014,11,09,06,22,21.00
2014,11,09,06,23,13.60
2014,11,09,06,24,6.10
2014,11,09,06,25,2.80
2014,11,09,06,26,6.20
2014,11,09,06,27,19.00
2014,11,09,06,28,19.20
2014,11,09,06,29,9.60
2014,11,09,06,30,8.00
2014,11,09,06,31,8.20
2014,11,09,06,32,12.20
2014,11,09,06,33,9.40
2014,11,09,06,34,6.00
2014,11,09,06,35,8.10
2014,11,09,06,36,6.70
2014,11,09,06,37,9.00
2014,11,09,06,38,4.50
2014,11,09,06,39,3.50
2014,11,09,06,40,6.90
2014,11,09,06,41,6.30
2014,11,09,06,42,6.90
2014,11,09,06,43,7.10
2014,11,09,06,44,7.00
2014,11,09,06,45,8.30
2014,11,09,06,46,3.50
2014,11,09,06,47,1.70
2014,11,09,06,48,6.60
2014,11,09,06,49,6.30
2014,11,09,06,50,3.50
2014,11,09,06,51,2.10
2014,11,09,06,52,5.10
2014,11,09,06,53,7.70
2014,11,09,06,54,5.80
2014,11,09,06,55,5.70
2014,11,09,06,56,5.00
2014,11,09,06,57,4.50
2014,11,09,06,58,5.80
2014,11,09,06,59,8.50
2014,11,09,07,00,8.20
2014,11,09,07,01,2.80
2014,11,09,07,02,6.00
2014,11,09,07,03,12.80
2014,11,09,07,04,4.60
2014,11,09,07,05,5.80
2014,11,09,07,06,17.20
2014,11,09,07,07,18.40
2014,11,09,07,08,16.20
2014,11,09,07,09,13.40
2014,11,09,07,10,13.20
2014,11,09,07,11,6.30
2014,11,09,07,12,4.30
2014,11,09,07,13,5.10
2014,11,09,07,14,5.90
2014,11,09,07,15,4.60
2014,11,09,07,16,9.00
2014,11,09,07,17,4.20
2014,11,09,07,18,4.10
2014,11,09,07,19,3.50
2014,11,09,07,20,7.10
2014,11,09,07,21,10.80
2014,11,09,07,22,12.00
2014,11,09,07,23,6.50
2014,11,09,07,24,7.20
2014,11,09,07,25,4.50
2014,11,09,07,26,6.80
2014,11,09,07,27,8.10
2014,11,09,07,28,9.20
2014,11,09,07,29,3.80
2014,11,09,07,30,2.20
2014,11,09,07,31,8.90
2014,11,09,07,32,7.40
2014,11,09,07,33,5.30
2014,11,09,07,34,2.20
2014,11,09,07,35,2.20
2014,11,09,07,36,2.70
2014,11,09,07,37,3.90
2014,11,09,07,38,6.10
2014,11,09,07,39,2.70
2014,11,09,07,40,4.90
2014,11,09,07,41,6.40
2014,11,09,07,42,10.90
2014,11,09,07,43,9.80
2014,11,09,07,44,6.30
2014,11,09,07,45,6.10
2014,11,09,07,46,6.00
2014,11,09,07,47,8.30
2014,11,09,07,48,6.40
2014,11,09,07,49,4.60
2014,11,09,07,50,8.00
2014,11,09,07,51,9.80
2014,11,09,07,52,5.10
2014,11,09,07,53,5.20
2014,11,09,07,54,9.80
2014,11,09,07,55,11.90
2014,11,09,07,56,11.20
2014,11,09,07,57,5.40
2014,11,09,07,58,5.30
2014,11,09,07,59,7.80
2014,11,09,08,00,7.00
2014,11,09,08,01,4.90
2014,11,09,08,02,6.90
2014,11,09,08,03,8.50
2014,11,09,08,04,4.40
2014,11,09,08,05,8.70
2014,11,09,08,06,8.50
2014,11,09,08,07,5.10
2014,11,09,08,08,12.30
2014,11,09,08,09,15.20
2014,11,09,08,10,5.40
2014,11,09,08,11,10.00
2014,11,09,08,12,7.60
2014,11,09,08,13,11.80
2014,11,09,08,14,16.20
2014,11,09,08,15,16.90
2014,11,09,08,16,25.20
2014,11,09,08,17,21.90
2014,11,09,08,18,21.20
2014,11,09,08,19,27.00
2014,11,09,08,20,12.20
2014,11,09,08,21,16.50
2014,11,09,08,22,16.30
2014,11,09,08,23,5.30
2014,11,09,08,24,10.30
2014,11,09,08,25,17.00
2014,11,09,08,26,20.30
2014,11,09,08,27,25.80
2014,11,09,08,28,13.00
2014,11,09,08,29,7.80
2014,11,09,08,30,7.30
2014,11,09,08,31,6.60
2014,11,09,08,32,8.20
2014,11,09,08,33,4.70
2014,11,09,08,34,5.00
2014,11,09,08,35,7.00
2014,11,09,08,36,4.50
2014,11,09,08,37,6.30
2014,11,09,08,38,5.80
2014,11,09,08,39,11.00
2014,11,09,08,40,11.50
2014,11,09,08,41,19.40
2014,11,09,08,42,6.90
2014,11,09,08,43,5.10
2014,11,09,08,44,7.70
2014,11,09,08,45,14.60
2014,11,09,08,46,12.60
2014,11,09,08,47,12.90
2014,11,09,08,48,19.00
2014,11,09,08,49,8.20
2014,11,09,08,50,12.50
2014,11,09,08,51,9.00
2014,11,09,08,52,9.90
2014,11,09,08,53,8.00
2014,11,09,08,54,6.40
2014,11,09,08,55,7.90
2014,11,09,08,56,8.50
2014,11,09,08,57,6.90
2014,11,09,08,58,9.90
2014,11,09,08,59,9.50
2014,11,09,09,00,10.70
2014,11,09,09,01,10.00
2014,11,09,09,02,12.80
2014,11,09,09,03,18.70
2014,11,09,09,04,14.20
2014,11,09,09,05,16.50
2014,11,09,09,06,9.50
2014,11,09,09,07,24.30
2014,11,09,09,08,18.80
2014,11,09,09,09,17.60
2014,11,09,09,10,19.40
2014,11,09,09,11,16.40
2014,11,09,09,12,19.30
2014,11,09,09,13,15.20
2014,11,09,09,14,8.20
2014,11,09,09,15,7.20
2014,11,09,09,16,14.80
2014,11,09,09,17,16.90
2014,11,09,09,18,22.10
2014,11,09,09,19,18.80
2014,11,09,09,20,8.50
2014,11,09,09,21,10.90
2014,11,09,09,22,11.10
2014,11,09,09,23,4.90
2014,11,09,09,24,4.50
2014,11,09,09,25,4.70
2014,11,09,09,26,12.20
2014,11,09,09,27,11.10
2014,11,09,09,28,6.60
2014,11,09,09,29,13.50
2014,11,09,09,30,6.90
2014,11,09,09,31,12.20
2014,11,09,09,32,14.30
2014,11,09,09,33,13.40
2014,11,09,09,34,10.90
2014,11,09,09,35,4.20
2014,11,09,09,36,7.00
2014,11,09,09,37,12.50
2014,11,09,09,38,9.50
2014,11,09,09,39,15.20
2014,11,09,09,40,4.50
2014,11,09,09,41,4.50
2014,11,09,09,42,3.30
2014,11,09,09,43,4.00
2014,11,09,09,44,8.10
2014,11,09,09,45,4.20
2014,11,09,09,46,5.10
2014,11,09,09,47,9.60
2014,11,09,09,48,4.30
2014,11,09,09,49,9.20
2014,11,09,09,50,6.70
2014,11,09,09,51,9.80
2014,11,09,09,52,7.40
2014,11,09,09,53,11.10
2014,11,09,09,54,13.50
2014,11,09,09,55,14.40
2014,11,09,09,56,10.40
2014,11,09,09,57,9.80
2014,11,09,09,58,13.10
2014,11,09,09,59,9.30
2014,11,09,10,00,12.30
2014,11,09,10,01,8.80
2014,11,09,10,02,5.50
2014,11,09,10,03,6.00
2014,11,09,10,04,7.20
2014,11,09,10,05,3.60
2014,11,09,10,06,10.70
2014,11,09,10,07,11.30
2014,11,09,10,08,5.50
2014,11,09,10,09,3.90
2014,11,09,10,10,7.20
2014,11,09,10,11,4.50
2014,11,09,10,12,8.70
2014,11,09,10,13,3.60
2014,11,09,10,14,9.70
2014,11,09,10,15,8.90
2014,11,09,10,16,9.40
2014,11,09,10,17,3.50
2014,11,09,10,18,6.10
2014,11,09,10,19,3.70
2014,11,09,10,20,4.50
2014,11,09,10,21,3.60
2014,11,09,10,22,4.00
2014,11,09,10,23,7.20
2014,11,09,10,24,12.30
2014,11,09,10,25,12.50
2014,11,09,10,26,11.30
2014,11,09,10,27,6.80
2014,11,09,10,28,2.40
2014,11,09,10,29,3.90
2014,11,09,10,30,3.80
2014,11,09,10,31,7.00
2014,11,09,10,32,5.90
2014,11,09,10,33,4.20
2014,11,09,10,34,2.30
2014,11,09,10,35,2.40
2014,11,09,10,36,9.10
2014,11,09,10,37,9.70
2014,11,09,10,38,7.80
2014,11,09,10,39,5.30
2014,11,09,10,40,4.30
2014,11,09,10,41,3.50
2014,11,09,10,42,3.40
2014,11,09,10,43,2.90
2014,11,09,10,44,6.50
2014,11,09,10,45,7.50
2014,11,09,10,46,6.30
2014,11,09,10,47,4.50
2014,11,09,10,48,5.40
2014,11,09,10,49,9.20
2014,11,09,10,50,6.20
2014,11,09,10,51,6.40
2014,11,09,10,52,7.90
2014,11,09,10,53,5.90
2014,11,09,10,54,6.00
2014,11,09,10,55,11.40
2014,11,09,10,56,13.50
2014,11,09,10,57,10.60
2014,11,09,10,58,5.80
2014,11,09,10,59,10.40
2014,11,09,11,00,10.10
2014,11,09,11,01,9.20
2014,11,09,11,02,9.20
2014,11,09,11,03,7.80
2014,11,09,11,04,10.70
2014,11,09,11,05,6.60
2014,11,09,11,06,7.50
2014,11,09,11,07,14.10
2014,11,09,11,08,11.10
2014,11,09,11,09,7.40
2014,11,09,11,10,7.40
2014,11,09,11,11,9.50
2014,11,09,11,12,15.30
2014,11,09,11,13,6.80
2014,11,09,11,14,15.90
2014,11,09,11,15,19.70
2014,11,09,11,16,17.60
2014,11,09,11,17,12.50
2014,11,09,11,18,7.30
2014,11,09,11,19,15.90
2014,11,09,11,20,18.50
2014,11,09,11,21,14.40
2014,11,09,11,22,10.70
2014,11,09,11,23,8.80
2014,11,09,11,24,9.50
2014,11,09,11,25,13.90
2014,11,09,11,26,9.40
2014,11,09,11,27,15.10
2014,11,09,11,28,7.50
2014,11,09,11,29,12.10
2014,11,09,11,30,10.50
2014,11,09,11,31,11.90
2014,11,09,11,32,6.70
2014,11,09,11,33,10.80
2014,11,09,11,34,6.30
2014,11,09,11,35,22.30
2014,11,09,11,36,18.40
2014,11,09,11,37,22.20
2014,11,09,11,38,9.30
2014,11,09,11,39,13.20
2014,11,09,11,40,18.40
2014,11,09,11,41,28.00
2014,11,09,11,42,16.60
2014,11,09,11,43,17.80
2014,11,09,11,44,21.90
2014,11,09,11,45,17.80
2014,11,09,11,46,18.50
2014,11,09,11,47,28.60
2014,11,09,11,48,22.40
2014,11,09,11,49,18.90
2014,11,09,11,50,25.00
2014,11,09,11,51,29.00
2014,11,09,11,52,15.00
2014,11,09,11,53,17.20
2014,11,09,11,54,20.70
2014,11,09,11,55,15.30
2014,11,09,11,56,23.60
2014,11,09,11,57,26.60
2014,11,09,11,58,20.90
2014,11,09,11,59,22.30
2014,11,09,12,00,27.10
2014,11,09,12,01,24.10
2014,11,09,12,02,19.10
2014,11,09,12,03,28.40
2014,11,09,12,04,27.20
2014,11,09,12,05,27.40
2014,11,09,12,06,25.70
2014,11,09,12,07,16.30
2014,11,09,12,08,14.20
2014,11,09,12,09,12.30
2014,11,09,12,10,15.20
2014,11,09,12,11,24.30
2014,11,09,12,12,22.10
2014,11,09,12,13,25.30
2014,11,09,12,14,22.20
2014,11,09,12,15,29.20
2014,11,09,12,16,33.60
2014,11,09,12,17,34.70
2014,11,09,12,18,27.20
2014,11,09,12,19,29.10
2014,11,09,12,20,19.20
2014,11,09,12,21,11.30
2014,11,09,12,22,10.70
2014,11,09,12,23,19.20
2014,11,09,12,24,30.20
2014,11,09,12,25,17.00
2014,11,09,12,26,25.80
2014,11,09,12,27,17.70
2014,11,09,12,28,26.90
2014,11,09,12,29,21.80
2014,11,09,12,30,20.60
2014,11,09,12,31,15.40
2014,11,09,12,32,24.60
2014,11,09,12,33,21.00
2014,11,09,12,34,23.70
2014,11,09,12,35,12.60
2014,11,09,12,36,20.70
2014,11,09,12,37,17.80
2014,11,09,12,38,23.70
2014,11,09,12,39,41.90
2014,11,09,12,40,38.30
2014,11,09,12,41,17.10
2014,11,09,12,42,33.80
2014,11,09,12,43,33.90
2014,11,09,12,44,33.60
2014,11,09,12,45,18.80
2014,11,09,12,46,30.20
2014,11,09,12,47,29.70
2014,11,09,12,48,22.80
2014,11,09,12,49,25.00
2014,11,09,12,50,24.60
2014,11,09,12,51,29.40
2014,11,09,12,52,27.40
2014,11,09,12,53,30.60
2014,11,09,12,54,30.30
2014,11,09,12,55,30.60
2014,11,09,12,56,30.10
2014,11,09,12,57,27.90
2014,11,09,12,58,38.70
2014,11,09,12,59,32.80
2014,11,09,13,00,27.90
2014,11,09,13,01,26.30
2014,11,09,13,02,21.50
2014,11,09,13,03,21.90
2014,11,09,13,04,24.10
2014,11,09,13,05,46.00
2014,11,09,13,06,22.40
2014,11,09,13,07,19.90
2014,11,09,13,08,16.50
2014,11,09,13,09,16.40
2014,11,09,13,10,20.50
2014,11,09,13,11,20.00
2014,11,09,13,12,22.50
2014,11,09,13,13,37.80
2014,11,09,13,14,24.60
2014,11,09,13,15,27.30
2014,11,09,13,16,14.70
2014,11,09,13,17,23.60
2014,11,09,13,18,28.90
2014,11,09,13,19,23.80
2014,11,09,13,20,32.80
2014,11,09,13,21,22.50
2014,11,09,13,22,29.80
2014,11,09,13,23,15.10
2014,11,09,13,24,20.20
2014,11,09,13,25,26.30
2014,11,09,13,26,31.50
2014,11,09,13,27,23.50
2014,11,09,13,28,28.20
2014,11,09,13,29,18.50
2014,11,09,13,30,21.20
2014,11,09,13,31,20.90
2014,11,09,13,32,20.60
2014,11,09,13,33,13.40
2014,11,09,13,34,14.90
2014,11,09,13,35,18.40
2014,11,09,13,36,22.70
2014,11,09,13,37,27.60
2014,11,09,13,38,35.20
2014,11,09,13,39,24.00
2014,11,09,13,40,20.90
2014,11,09,13,41,31.00
2014,11,09,13,42,27.70
2014,11,09,13,43,21.80
2014,11,09,13,44,22.70
2014,11,09,13,45,20.10
2014,11,09,13,46,20.60
2014,11,09,13,47,20.60
2014,11,09,13,48,25.00
2014,11,09,13,49,28.00
2014,11,09,13,50,31.70
2014,11,09,13,51,26.50
2014,11,09,13,52,34.00
2014,11,09,13,53,23.70
2014,11,09,13,54,18.80
2014,11,09,13,55,19.00
2014,11,09,13,56,20.40
2014,11,09,13,57,29.20
2014,11,09,13,58,22.20
2014,11,09,13,59,20.00
2014,11,09,14,00,15.80
2014,11,09,14,01,25.00
2014,11,09,14,02,20.70
2014,11,09,14,03,24.90
2014,11,09,14,04,23.40
2014,11,09,14,05,13.70
2014,11,09,14,06,17.10
2014,11,09,14,07,13.90
2014,11,09,14,08,16.70
2014,11,09,14,09,16.40
2014,11,09,14,10,21.90
2014,11,09,14,11,17.40
2014,11,09,14,12,9.20
2014,11,09,14,13,16.30
2014,11,09,14,14,19.70
2014,11,09,14,15,15.20
2014,11,09,14,16,13.90
2014,11,09,14,17,15.90
2014,11,09,14,18,13.70
2014,11,09,14,19,13.70
2014,11,09,14,20,20.00
2014,11,09,14,21,11.70
2014,11,09,14,22,16.80
2014,11,09,14,23,22.80
2014,11,09,14,24,17.60
2014,11,09,14,25,12.80
2014,11,09,14,26,20.80
2014,11,09,14,27,22.50
2014,11,09,14,28,22.20
2014,11,09,14,29,18.50
2014,11,09,14,30,22.70
2014,11,09,14,31,23.20
2014,11,09,14,32,17.60
2014,11,09,14,33,13.60
2014,11,09,14,34,17.00
2014,11,09,14,35,24.30
2014,11,09,14,36,21.30
2014,11,09,14,37,15.10
2014,11,09,14,38,21.20
2014,11,09,14,39,21.20
2014,11,09,14,40,19.90
2014,11,09,14,41,17.40
2014,11,09,14,42,14.40
2014,11,09,14,43,6.00
2014,11,09,14,44,10.90
2014,11,09,14,45,8.80
2014,11,09,14,46,13.80
2014,11,09,14,47,8.50
2014,11,09,14,48,30.90
2014,11,09,14,49,26.80
2014,11,09,14,50,16.30
2014,11,09,14,51,16.80
2014,11,09,14,52,11.00
2014,11,09,14,53,7.30
2014,11,09,14,54,7.50
2014,11,09,14,55,17.60
2014,11,09,14,56,13.90
2014,11,09,14,57,11.80
2014,11,09,14,58,10.10
2014,11,09,14,59,7.40
2014,11,09,15,00,5.40
2014,11,09,15,01,5.10
2014,11,09,15,02,12.80
2014,11,09,15,03,7.80
2014,11,09,15,04,6.40
2014,11,09,15,05,4.00
2014,11,09,15,06,6.90
2014,11,09,15,07,6.50
2014,11,09,15,08,6.40
2014,11,09,15,09,4.10
2014,11,09,15,10,6.90
2014,11,09,15,11,7.50
2014,11,09,15,12,3.20
2014,11,09,15,13,8.30
2014,11,09,15,14,14.00
2014,11,09,15,15,9.80
2014,11,09,15,16,8.10
2014,11,09,15,17,7.30
2014,11,09,15,18,11.70
2014,11,09,15,19,7.00
2014,11,09,15,20,3.00
2014,11,09,15,21,3.10
2014,11,09,15,22,7.10
2014,11,09,15,23,8.50
2014,11,09,15,24,9.20
2014,11,09,15,25,15.30
2014,11,09,15,26,9.50
2014,11,09,15,27,5.50
2014,11,09,15,28,11.10
2014,11,09,15,29,10.30
2014,11,09,15,30,6.90
2014,11,09,15,31,5.90
2014,11,09,15,32,8.90
2014,11,09,15,33,6.30
2014,11,09,15,34,5.50
2014,11,09,15,35,8.50
2014,11,09,15,36,8.30
2014,11,09,15,37,3.70
2014,11,09,15,38,2.90
2014,11,09,15,39,3.30
2014,11,09,15,40,6.90
2014,11,09,15,41,6.40
2014,11,09,15,42,4.50
2014,11,09,15,43,5.90
2014,11,09,15,44,5.60
2014,11,09,15,45,6.70
2014,11,09,15,46,3.50
2014,11,09,15,47,1.90
2014,11,09,15,48,2.70
2014,11,09,15,49,6.30
2014,11,09,15,50,3.50
2014,11,09,15,51,1.50
2014,11,09,15,52,1.00
2014,11,09,15,53,7.50
2014,11,09,15,54,3.90
2014,11,09,15,55,10.40
2014,11,09,15,56,11.10
2014,11,09,15,57,8.50
2014,11,09,15,58,8.40
2014,11,09,15,59,11.80
2014,11,09,16,00,4.90
2014,11,09,16,01,2.90
2014,11,09,16,02,5.10
2014,11,09,16,03,7.60
2014,11,09,16,04,5.30
2014,11,09,16,05,8.20
2014,11,09,16,06,4.60
2014,11,09,16,07,5.70
2014,11,09,16,08,6.30
2014,11,09,16,09,6.50
2014,11,09,16,10,6.30
2014,11,09,16,11,6.30
2014,11,09,16,12,11.10
2014,11,09,16,13,7.80
2014,11,09,16,14,8.90
2014,11,09,16,15,9.10
2014,11,09,16,16,8.50
2014,11,09,16,17,11.30
2014,11,09,16,18,13.60
2014,11,09,16,19,9.50
2014,11,09,16,20,6.90
2014,11,09,16,21,8.50
2014,11,09,16,22,5.70
2014,11,09,16,23,6.80
2014,11,09,16,24,4.80
2014,11,09,16,25,4.50
2014,11,09,16,26,0.80
2014,11,09,16,27,2.00
2014,11,09,16,28,3.90
2014,11,09,16,29,5.80
2014,11,09,16,30,5.60
2014,11,09,16,31,3.00
2014,11,09,16,32,4.10
2014,11,09,16,33,7.80
2014,11,09,16,34,5.40
2014,11,09,16,35,3.90
2014,11,09,16,36,1.60
2014,11,09,16,37,3.30
2014,11,09,16,38,3.60
2014,11,09,16,39,3.40
2014,11,09,16,40,3.40
2014,11,09,16,41,3.80
2014,11,09,16,42,3.70
2014,11,09,16,43,1.90
2014,11,09,16,44,2.40
2014,11,09,16,45,3.90
2014,11,09,16,46,8.20
2014,11,09,16,47,11.70
2014,11,09,16,48,6.60
2014,11,09,16,49,8.10
2014,11,09,16,50,7.70
2014,11,09,16,51,4.00
2014,11,09,16,52,6.00
2014,11,09,16,53,2.60
2014,11,09,16,54,4.40
2014,11,09,16,55,3.60
2014,11,09,16,56,8.20
2014,11,09,16,57,4.80
2014,11,09,16,58,4.20
2014,11,09,16,59,3.90
2014,11,09,17,00,2.90
2014,11,09,17,01,2.90
2014,11,09,17,02,3.50
2014,11,09,17,03,5.70
2014,11,09,17,04,6.00
2014,11,09,17,05,8.50
2014,11,09,17,06,6.60
2014,11,09,17,07,5.40
2014,11,09,17,08,4.90
2014,11,09,17,09,9.70
2014,11,09,17,10,7.50
2014,11,09,17,11,4.80
2014,11,09,17,12,6.40
2014,11,09,17,13,4.50
2014,11,09,17,14,2.50
2014,11,09,17,15,2.70
2014,11,09,17,16,7.00
2014,11,09,17,17,6.80
2014,11,09,17,18,7.40
2014,11,09,17,19,3.90
2014,11,09,17,20,3.50
2014,11,09,17,21,2.90
2014,11,09,17,22,6.30
2014,11,09,17,23,7.60
2014,11,09,17,24,9.40
2014,11,09,17,25,8.50
2014,11,09,17,26,5.70
2014,11,09,17,27,5.70
2014,11,09,17,28,4.70
2014,11,09,17,29,4.00
2014,11,09,17,30,4.30
2014,11,09,17,31,2.90
2014,11,09,17,32,2.70
2014,11,09,17,33,6.10
2014,11,09,17,34,4.80
2014,11,09,17,35,4.30
2014,11,09,17,36,6.30
2014,11,09,17,37,5.80
2014,11,09,17,38,8.10
2014,11,09,17,39,7.60
2014,11,09,17,40,7.30
2014,11,09,17,41,5.30
2014,11,09,17,42,2.60
2014,11,09,17,43,2.60
2014,11,09,17,44,4.50
2014,11,09,17,45,2.50
2014,11,09,17,46,5.70
2014,11,09,17,47,4.10
2014,11,09,17,48,2.20
2014,11,09,17,49,1.10
2014,11,09,17,50,2.60